Weather Roundup
Issued by NWS

Home | Current Version | Previous Version | Text Only | Print | Product List | Glossary On
Versions: 1 2 3 4 5 6 7 8 9 10 11 12 13 14 15 16 17 18 19 20 21 22 23 24 25 26 27 28 29 30 31 32 33 34 35 36 37 38 39 40 41 42 43 44 45 46 47 48 49 50
000
NZUS93 KARX 241459
HRRWXR

CURRENT HOURLY OBSERVATIONS ACROSS
MUCH OF THE UPPER MISSISSIPPI VALLEY
NATIONAL WEATHER SERVICE LA CROSSE WI
1000 AM CDT WED MAY 24 2017


...SOUTHEAST MINNESOTA...


CITY           SKY/WX    TMP DP  RH WIND       PRES   REMARKS
ROCHESTER      CLOUDY    50  47  89 N12       29.74F
ROCHESTER/MAYO NOT AVBL
WINONA         CLOUDY    54  45  71 NE7       29.73S
AUSTIN         CLOUDY    50  46  87 N8        29.73F
ALBERT LEA     CLOUDY    52  48  87 N12       29.75S
DODGE CENTER   CLOUDY    48  46  93 N7        29.74F
PRESTON        CLOUDY    50  46  84 N12       29.72S
OWATONNA       CLOUDY    48  45  87 N6        29.76F
FARIBAULT      CLOUDY    52  46  82 N8        29.77F
$$

...ELSEWHERE IN MINNESOTA...


CITY           SKY/WX    TMP DP  RH WIND       PRES   REMARKS
MINNEAPOLIS    CLOUDY    53  44  71 N10       29.78F
INTNL FALLS    SUNNY     58  38  47 E8        29.84F
DULUTH         PTSUNNY   50  44  80 E10       29.83S
RED WING       PTSUNNY   54  45  71 NE5       29.75F
REDWOOD FALLS  MOSUNNY   55  44  66 NE10      29.78F
MANKATO        NOT AVBL
WORTHINGTON    CLOUDY    49  45  86 N8        29.79F
FAIRMONT       CLOUDY    49  46  90 N8        29.77F
$$

...SOUTHWEST WISCONSIN...


CITY           SKY/WX    TMP DP  RH WIND       PRES   REMARKS
LA CROSSE      CLOUDY    54  48  80 N8        29.71S
PRAIRIE DU CHI CLOUDY    55  47  77 N8        29.68S
BOSCOBEL       CLOUDY    54  49  83 N9        29.68S
LONE ROCK      CLOUDY    53  48  83 NE9       29.68R HAZE
PLATTEVILLE    CLOUDY    53  52  97 N12       29.66S
FORT MC COY    CLOUDY    49  48  95 N6        29.71F
CAMP DOUGLAS   DRIZZLE   50  48  93 NE5       29.70S
MAUSTON-NEW LI CLOUDY    50  48  94 NE6       29.69S FOG
VIROQUA        CLOUDY    50  48  93 MISG      29.69S
WIS DELLS      CLOUDY    49  48  95 N6        29.68S
$$

...ELSEWHERE IN WISCONSIN...


CITY           SKY/WX    TMP DP  RH WIND       PRES   REMARKS
MILWAUKEE      DRZL/FOG  51  51 100 N15G22    29.62F VSB 1/2
MADISON        CLOUDY    52  51  97 N10       29.65S
GREEN BAY      CLOUDY    51  51 100 N16G23    29.70S
EAU CLAIRE     NOT AVBL
BLACK RVR FLS  CLOUDY    52  51  95 NE8       29.72S
MEDFORD        CLOUDY    49  45  87 NE9       29.73F
WAUSAU         CLOUDY    50  48  93 N8        29.70F
WIS RAPIDS     CLOUDY    51  49  92 NE8       29.71S
MARSHFIELD     CLOUDY    51  47  86 NE12      29.70F
RICE LAKE      CLOUDY    52  45  76 N12       29.78F
$$

...NORTHEAST IOWA...


CITY           SKY/WX    TMP DP  RH WIND       PRES   REMARKS
WATERLOO       CLOUDY    53  48  83 NE9       29.69R
DUBUQUE        CLOUDY    52  48  86 N13       29.65S
DECORAH        CLOUDY    52  48  87 N8G16     29.69S
MASON CITY     CLOUDY    51  47  86 N15       29.74S
CHARLES CITY   CLOUDY    54  50  87 NE15G21   29.71S
OELWEIN        CLOUDY    54  50  87 NE14      29.69R
$$

...ELSEWHERE IN IOWA...


CITY           SKY/WX    TMP DP  RH WIND       PRES   REMARKS
DES MOINES     CLOUDY    55  50  83 N10       29.69S
IOWA CITY      CLOUDY    59  52  77 NE9       29.65S
FORT DODGE     CLOUDY    54  48  82 N8        29.75S
MARSHALLTOWN   CLOUDY    53  50  89 N13       29.68S
CEDAR RAPIDS   CLOUDY    54  52  93 N12       29.65R
$$

...NORTHERN ILLINOIS...


CITY           SKY/WX    TMP DP  RH WIND       PRES   REMARKS
CHICAGO-OHARE  CLOUDY    57  51  80 NE14      29.58S
CHICAGO-MIDWAY CLOUDY    56  52  86 N15       29.57S
MOLINE         CLOUDY    60  50  69 N8        29.60F
ROCKFORD       CLOUDY    54  52  93 N9        29.64S FOG
PEORIA         PTSUNNY   62  54  74 N10       29.58S
$$

NOTE: "FAIR" INDICATES FEW OR NO CLOUDS BELOW 12,000 FEET WITH NO
SIGNIFICANT WEATHER AND/OR OBSTRUCTIONS TO VISIBILITY. WIND
SPEEDS ARE IN MILES-PER-HOUR.




USA.gov is the U.S. government's official web portal to all federal, state and local government web resources and services.